Weather History for Iliamna, AK

Change the Weather History Date:

Wednesday, March 19, 2014

  Actual Average Record
Temperature  
Mean Temperature 18 °F -  
Max Temperature 27 °F 31 °F 47 °F (1984)
Min Temperature 9 °F 17 °F -15 °F (1946)
Degree Days  
Heating Degree Days 47    
Moisture  
Dew Point 7 °F    
Average Humidity 62    
Maximum Humidity 95    
Minimum Humidity 30    
Precipitation  
Precipitation 0.00 in - - ()
Sea Level Pressure  
Sea Level Pressure 30.27 in    
Wind  
Wind Speed 7 mph (NNW)    
Max Wind Speed 18 mph    
Max Gust Speed 18 mph    
Visibility 10 miles    
Events      
Averages and records for this station are not official NWS values.
T = Trace of Precipitation, MM = Missing Value Source: NWS Daily Summary

Daily Weather History Graph

Daily Weather History Graph

Search for Another Location

Airport:

Trip Planner

Search our weather history database for the weather conditions in past years. The results will help you decide how hot, cold, wet, or windy it might be!

Date:

Astronomy

Mar. 19, 2014 Rise Set
Actual Time 8:23 AM AKDT 8:32 PM AKDT
Civil Twilight 7:42 AM AKDT 9:13 PM AKDT
Nautical Twilight 6:53 AM AKDT 10:03 PM AKDT
Astronomical Twilight 5:59 AM AKDT 10:57 PM AKDT
Moon No Moon Rise 9:08 AM AKDT (3/19)
Length of Visible Light 13h 31m
Length of Day
12h 08m
Waning Gibbous, 90% of the Moon is Illuminated
Mar 19
Waning Gibbous
Mar 23
Last Quarter
Mar 30
New
Apr 7
First Quarter
Apr 14
Full

Hourly Weather History & Observations

Time (AKDT) Temp. Windchill Dew Point Humidity Pressure Visibility Wind Dir Wind Speed Gust Speed Precip Events Conditions
12:53 AM 19.0 °F 12.3 °F 9.0 °F 65% 30.23 in 10.0 mi NNW 4.6 mph - N/A   Clear
1:53 AM 19.9 °F 13.4 °F 8.1 °F 60% 30.23 in 10.0 mi NW 4.6 mph - N/A   Clear
2:53 AM 14.0 °F 6.5 °F 6.1 °F 71% 30.26 in 10.0 mi West 4.6 mph - N/A   Clear
3:53 AM 12.9 °F -0.2 °F 5.0 °F 71% 30.27 in 10.0 mi NNW 10.4 mph - N/A   Clear
4:53 AM 12.9 °F -0.2 °F 5.0 °F 71% 30.28 in 10.0 mi WNW 10.4 mph - N/A   Clear
5:53 AM 12.0 °F -1.3 °F 5.0 °F 73% 30.28 in 10.0 mi NNW 10.4 mph - N/A   Clear
6:53 AM 10.9 °F -1.8 °F 3.9 °F 73% 30.30 in 10.0 mi West 9.2 mph - N/A   Clear
7:53 AM 12.0 °F 1.5 °F 5.0 °F 73% 30.30 in 10.0 mi North 6.9 mph - N/A   Clear
8:53 AM 9.0 °F - 3.9 °F 80% 30.30 in 10.0 mi Calm Calm - N/A   Clear
9:53 AM 12.9 °F - 5.0 °F 71% 30.29 in 10.0 mi Calm Calm - N/A   Clear
10:53 AM 14.0 °F - 3.9 °F 64% 30.30 in 10.0 mi Calm Calm - N/A   Clear
11:53 AM 19.0 °F 13.9 °F 6.1 °F 57% 30.29 in 10.0 mi Variable 3.5 mph - N/A   Clear
12:53 PM 21.0 °F 6.2 °F 6.1 °F 53% 30.28 in 10.0 mi NNW 18.4 mph - N/A   Clear
1:53 PM 21.9 °F - 5.0 °F 48% 30.28 in 10.0 mi Calm Calm - N/A   Clear
2:53 PM 26.1 °F 15.0 °F 5.0 °F 41% 30.27 in 10.0 mi North 12.7 mph - N/A   Clear
3:53 PM 26.1 °F 14.5 °F 7.0 °F 44% 30.26 in 10.0 mi NNW 13.8 mph - N/A   Clear
4:53 PM 26.1 °F 15.6 °F 8.1 °F 47% 30.27 in 10.0 mi NNW 11.5 mph - N/A   Clear
5:53 PM 26.1 °F 16.2 °F 8.1 °F 47% 30.26 in 10.0 mi North 10.4 mph 18.4 mph N/A   Clear
6:53 PM 27.0 °F 18.7 °F 8.1 °F 45% 30.26 in 10.0 mi NNE 8.1 mph - N/A   Clear
7:53 PM 25.0 °F 19.3 °F 7.0 °F 46% 30.26 in 10.0 mi North 4.6 mph - N/A   Clear
8:53 PM 18.0 °F 9.8 °F 9.0 °F 68% 30.26 in 10.0 mi NE 5.8 mph - N/A   Clear
9:53 PM 15.1 °F 7.7 °F 8.1 °F 74% 30.27 in 10.0 mi NE 4.6 mph - N/A   Clear
10:53 PM 14.0 °F 2.0 °F 10.9 °F 88% 30.28 in 10.0 mi ENE 9.2 mph - N/A   Clear
11:53 PM 12.0 °F 2.7 °F 10.9 °F 95% 30.28 in 10.0 mi ENE 5.8 mph - N/A   Clear